Regional Weather Roundup
Issued by NWS

Home | Current Version | Previous Version | Text Only | Print | Product List | Glossary Off
Versions: 1 2 3 4 5 6 7 8 9 10 11 12 13 14 15 16 17 18 19 20 21 22 23 24 25 26 27 28 29 30 31 32 33 34 35 36 37 38 39 40 41 42 43 44 45 46 47 48 49 50

000
ASUS45 KPSR 140610
RWRAZ

ARIZONA HOURLY REGIONAL WEATHER ROUNDUP
NATIONAL WEATHER SERVICE PHOENIX AZ
1100 PM MST SAT FEB 13 2016

NOTE: FAIR INDICATES FEW OR NO CLOUDS BELOW 12,000 FEET WITH NO
SIGNIFICANT WEATHER AND/OR OBSTRUCTIONS TO VISIBILITY.

AZZ001>003-036-140700-
NORTHWEST ARIZONA

CITY           SKY/WX    TMP DP  RH WIND       PRES   REMARKS
BULLHEAD CITY  CLEAR     63  25  23 NE3       30.04S
KINGMAN          N/A     46  20  35 E10       30.13F
6HR MIN TEMP:  46; 6HR MAX TEMP:  72;

$$

AZZ004>008-015-016-018-140700-
NORTH CENTRAL ARIZONA

CITY           SKY/WX    TMP DP  RH WIND       PRES   REMARKS
GRAND CANYON   CLOUDY    30  20  66 CALM      30.24S
6HR MIN TEMP:  29; 6HR MAX TEMP:  62;

WILLIAMS       PTCLDY    30  18  59 S10       30.28F WCI  21
PRESCOTT       CLEAR     41  22  46 S6        30.18F
6HR MIN TEMP:  41; 6HR MAX TEMP:  69;

FLAGSTAFF      PTCLDY    27  17  66 CALM      30.24F
6HR MIN TEMP:  27; 6HR MAX TEMP:  58;

PAYSON         CLEAR     46  21  36 N5        30.17F
PAGE           PTCLDY    47  33  58 CALM      30.17R
6HR MIN TEMP:  45; 6HR MAX TEMP:  57;

$$

AZZ009>014-017-140700-
NORTHEAST ARIZONA

CITY           SKY/WX    TMP DP  RH WIND       PRES   REMARKS
WINSLOW        PTCLDY    33  16  49 SW6       30.17S WCI  28
6HR MIN TEMP:  33; 6HR MAX TEMP:  70;

SAINT JOHNS    PTCLDY    39  12  33 S8        30.17S WCI  33
6HR MIN TEMP:  37; 6HR MAX TEMP:  67;

WINDOW ROCK    MOCLDY    38   0  20 NE5       30.21F WCI  34
6HR MIN TEMP:  34; 6HR MAX TEMP:  62;

SHOW LOW       PTCLDY    32  16  51 CALM      30.21F
$$

AZZ023-140700-
GREATER PHOENIX AREA

CITY           SKY/WX    TMP DP  RH WIND       PRES   REMARKS
PHOENIX        PTCLDY    68  32  26 CALM      29.97S
6HR MIN TEMP:  65; 6HR MAX TEMP:  84;

BUCKEYE        PTCLDY    63  23  22 N12       30.00S
LUKE AFB       PTCLDY    64  29  26 VRB2      29.97S
6HR MIN TEMP:  60; 6HR MAX TEMP:  81;

DEER VALLEY    PTCLDY    60  28  29 E3        29.98S
6HR MIN TEMP:  60; 6HR MAX TEMP:  80;

SCOTTSDALE     PTCLDY    61  32  33 CALM      30.00S
6HR MIN TEMP:  61; 6HR MAX TEMP:  82;

MESA-GATEWAY   CLEAR     54  30  40 E6        30.00S
$$

AZZ027-028-140700-
SOUTHWEST MARICOPA COUNTY AND PINAL COUNTY

CITY           SKY/WX    TMP DP  RH WIND       PRES   REMARKS
CASA GRANDE    PTCLDY    57  28  33 W5        30.01S
6HR MIN TEMP:  55; 6HR MAX TEMP:  81;

GILA BEND      FAIR      58  27  30 S9        29.99S
6HR MIN TEMP:  57; 6HR MAX TEMP:  82;

$$

AZZ503-504-507>509-140700-
SOUTHEAST ARIZONA

CITY           SKY/WX    TMP DP  RH WIND       PRES   REMARKS
TUCSON         MOCLDY    61  24  24 SW3       30.07S
6HR MIN TEMP:  60; 6HR MAX TEMP:  82;

DAVIS-MONTHAN  MOCLDY    56  25  30 SE7       30.06R
6HR MIN TEMP:  56; 6HR MAX TEMP:  80;

NOGALES        PTCLDY    50  19  29 CALM      30.11R
6HR MIN TEMP:  50; 6HR MAX TEMP:  79;

SIERRA VISTA   MOCLDY    56  11  16 SW10      30.15S
6HR MIN TEMP:  56; 6HR MAX TEMP:  76;

DOUGLAS        PTCLDY    50  17  27 N9        30.11R
6HR MIN TEMP:  50; 6HR MAX TEMP:  79;

SAFFORD        PTCLDY    50  20  30 SE6       30.04S
6HR MIN TEMP:  49; 6HR MAX TEMP:  78;

$$

AZZ020-021-025-026-031-140700-
SOUTHWEST ARIZONA

CITY           SKY/WX    TMP DP  RH WIND       PRES   REMARKS
YUMA           MOCLDY    64  31  28 CALM      29.99S
6HR MIN TEMP:  64; 6HR MAX TEMP:  87;

$$

CAZ031-033-041-043-047-048-061-140700-
SOUTHERN CALIFORNIA

CITY           SKY/WX    TMP DP  RH WIND       PRES   REMARKS
DOWNTOWN L.A.  MOCLDY    54  53  97 CALM      30.07R FOG
6HR MIN TEMP:  53; 6HR MAX TEMP:  67;

L.A. AIRPORT   PTCLDY    56  53  90 N3        30.07R FOG
6HR MIN TEMP:  55; 6HR MAX TEMP:  59;

SAN DIEGO      PTCLDY    61  53  75 CALM      30.07R
6HR MIN TEMP:  60; 6HR MAX TEMP:  66;

BURBANK        CLEAR     59  42  53 CALM      30.07R
6HR MIN TEMP:  59; 6HR MAX TEMP:  74;

ONTARIO        PTCLDY    59  44  57 CALM      30.06S
6HR MIN TEMP:  56; 6HR MAX TEMP:  78;

RIVERSIDE      CLEAR     61  40  45 CALM      30.06R
6HR MIN TEMP:  57; 6HR MAX TEMP:  78;

PALM SPRINGS   CLEAR     74  26  16 NW12      30.04S
6HR MIN TEMP:  69; 6HR MAX TEMP:  86;

EL CENTRO NAS  PTCLDY    64  25  22 SW7       30.01S
6HR MIN TEMP:  60; 6HR MAX TEMP:  88;

IMPERIAL       PTCLDY    61  36  39 W3        29.98S
6HR MIN TEMP:  60; 6HR MAX TEMP:  87;

BLYTHE         PTCLDY    65  22  19 W8        30.00
6HR MIN TEMP:  65; 6HR MAX TEMP:  84;

NEEDLES        CLEAR     63  23  21 W10       30.02F
6HR MIN TEMP:  62; 6HR MAX TEMP:  83;

$$

NVZ020-UTZ003-140700-
SOUTHERN NEVADA-UTAH

CITY           SKY/WX    TMP DP  RH WIND       PRES   REMARKS
LAS VEGAS      CLEAR     59  24  26 S3        30.09R
6HR MIN TEMP:  59; 6HR MAX TEMP:  75;

SALT LAKE CITY FOG       29  29 100 S3        30.31F VSB 1/8
6HR MIN TEMP:  29; 6HR MAX TEMP:  35;

$$

NMZ009-TXZ055-140700-
NEW MEXICO-WEST TEXAS

CITY           SKY/WX    TMP DP  RH WIND       PRES   REMARKS
ALBUQUERQUE    CLOUDY    52  16  24 N9        30.13R
6HR MIN TEMP:  52; 6HR MAX TEMP:  67;

EL PASO        MOCLDY    56  11  16 CALM      30.04S
6HR MIN TEMP:  52; 6HR MAX TEMP:  75;

$$


........................KEY........................
SKY/WX - SKY CONDITION/WEATHER
TMP    - TEMPERATURE IN FAHRENHEIT
DP     - DEW POINT IN FAHRENHEIT
RH     - RELATIVE HUMIDITY IN PERCENT
WIND   - DIRECTION AND SPEED IN MILES PER HOUR (MPH)
VRB    - VARIABLE WIND DIRECTION
PRES   - MEAN SEA LEVEL PRESSURE IN INCHES OF MERCURY
         F - FALLING PRESSURE   R - RISING PRESSURE
         S - STEADY PRESSURE
VSB    - VISIBILITY IN MILES
HX     - HEAT INDEX IN FAHRENHEIT
WCI    - WIND CHILL INDEX IN FAHRENHEIT
TC     - TEMPERATURE IN CELSIUS WHICH IS ALSO KNOWN AS
         TEMPERATURE IN CENTIGRADE
AFB    - AIR FORCE BASE
         LUKE AFB IS LUKE AIR FORCE BASE
         DAVIS-MONTHAN IS DAVIS-MONTHAN AIR FORCE BASE
NAS    - NAVAL AIR STATION
         EL CENTRO NAS IS EL CENTRO NAVAL AIR STATION
N/A    - NOT AVAILABLE




USA.gov is the U.S. government's official web portal to all federal, state and local government web resources and services.